EZY826T EGGW-EGPH

Flight info

Callsign EZY826T
Flight time 0h 51m
Altitude 32000
Route OLNEY T420 TNT UN57 POL UN601 RIBEL DCT INPIP
Aircraft A320/M-SDE2E3FGHIJ1RWXYZ/LB1

Departure

Time 2026-04-25 16:09
Airport London Luton Airport (EGGW)

Arrival

Time 2026-04-25 17:01
Airport Edinburgh Airport (EGPH)
Time Latitude Longitude Altitude Speed Heading
2026-04-25 15:49 51.87888 -0.37925 524 ft 0 kts 73°
2026-04-25 16:03 51.87886 -0.37934 523 ft 4 kts 73°
2026-04-25 16:03 51.87879 -0.37970 523 ft 2 kts 72°
2026-04-25 16:03 51.87877 -0.38002 523 ft 4 kts 133°
2026-04-25 16:03 51.87897 -0.38016 523 ft 1 kts 174°
2026-04-25 16:04 51.87898 -0.38016 523 ft 0 kts 174°
2026-04-25 16:05 51.87796 -0.37905 523 ft 22 kts 118°
2026-04-25 16:06 51.87731 -0.37676 521 ft 24 kts 114°
2026-04-25 16:06 51.87626 -0.37465 523 ft 25 kts 163°
2026-04-25 16:06 51.87492 -0.37592 523 ft 25 kts 251°
2026-04-25 16:06 51.87447 -0.37870 523 ft 26 kts 255°
2026-04-25 16:07 51.87369 -0.38065 523 ft 14 kts 207°
2026-04-25 16:07 51.87359 -0.38073 523 ft 0 kts 206°
2026-04-25 16:07 51.87358 -0.38074 523 ft 2 kts 206°
2026-04-25 16:08 51.87319 -0.38104 522 ft 7 kts 202°
2026-04-25 16:08 51.87259 -0.38067 523 ft 14 kts 110°
2026-04-25 16:08 51.87264 -0.37998 524 ft 13 kts 75°
2026-04-25 16:08 51.87364 -0.37429 522 ft 89 kts 74°
2026-04-25 16:09 51.87587 -0.36144 524 ft 145 kts 75°
2026-04-25 16:09 51.87853 -0.34467 1006 ft 156 kts 75°
2026-04-25 16:09 51.88145 -0.32788 1727 ft 154 kts 73°
2026-04-25 16:09 51.88456 -0.31087 2248 ft 165 kts 73°
2026-04-25 16:10 51.88804 -0.29190 2500 ft 188 kts 73°
2026-04-25 16:10 51.89395 -0.27196 2750 ft 209 kts 44°
2026-04-25 16:10 51.90759 -0.26194 3014 ft 232 kts
2026-04-25 16:10 51.92355 -0.26953 3434 ft 254 kts 323°
2026-04-25 16:11 51.93380 -0.29257 4158 ft 263 kts 287°
2026-04-25 16:11 51.93536 -0.32218 5060 ft 268 kts 266°
2026-04-25 16:11 51.93292 -0.35227 5962 ft 271 kts 261°
2026-04-25 16:11 51.93050 -0.38262 6830 ft 274 kts 272°
2026-04-25 16:12 51.93574 -0.41198 7603 ft 276 kts 304°
2026-04-25 16:12 51.94868 -0.43501 8433 ft 278 kts 315°
2026-04-25 16:12 51.96244 -0.45739 9281 ft 282 kts 314°
2026-04-25 16:12 51.97173 -0.47275 9847 ft 284 kts 314°
2026-04-25 16:13 51.99033 -0.50380 10598 ft 301 kts 314°
2026-04-25 16:13 52.00543 -0.52910 10880 ft 322 kts 314°
2026-04-25 16:13 52.02125 -0.55556 11498 ft 329 kts 314°
2026-04-25 16:13 52.03728 -0.58234 12207 ft 332 kts 314°
2026-04-25 16:14 52.05347 -0.60942 12972 ft 335 kts 314°
2026-04-25 16:14 52.06974 -0.63666 13722 ft 338 kts 314°
2026-04-25 16:14 52.08618 -0.66421 14402 ft 340 kts 313°
2026-04-25 16:14 52.10272 -0.69195 15040 ft 343 kts 313°
2026-04-25 16:15 52.11945 -0.71985 15670 ft 346 kts 315°
2026-04-25 16:15 52.13835 -0.74445 16288 ft 350 kts 326°
2026-04-25 16:15 52.15926 -0.76513 16914 ft 353 kts 328°
2026-04-25 16:15 52.18042 -0.78597 17542 ft 356 kts 327°
2026-04-25 16:16 52.20170 -0.80704 18151 ft 360 kts 327°
2026-04-25 16:16 52.22313 -0.82834 18716 ft 363 kts 327°
2026-04-25 16:16 52.24479 -0.84991 19240 ft 366 kts 327°
2026-04-25 16:16 52.26659 -0.87159 19749 ft 369 kts 327°
2026-04-25 16:17 52.28864 -0.89340 20265 ft 372 kts 327°
2026-04-25 16:17 52.31091 -0.91548 20733 ft 376 kts 327°
2026-04-25 16:17 52.33339 -0.93783 21225 ft 380 kts 327°
2026-04-25 16:17 52.35575 -0.96011 21698 ft 383 kts 327°
2026-04-25 16:18 52.37856 -0.98293 22168 ft 386 kts 327°
2026-04-25 16:18 52.38633 -0.99071 22324 ft 387 kts 327°
2026-04-25 16:18 52.42465 -1.02909 23198 ft 390 kts 327°
2026-04-25 16:18 52.44786 -1.05230 23664 ft 392 kts 327°
2026-04-25 16:19 52.47122 -1.07571 24063 ft 395 kts 327°
2026-04-25 16:19 52.49470 -1.09929 24446 ft 397 kts 327°
2026-04-25 16:19 52.51832 -1.12308 24826 ft 400 kts 327°
2026-04-25 16:20 52.56602 -1.17120 25551 ft 405 kts 327°
2026-04-25 16:20 52.59009 -1.19543 25917 ft 407 kts 327°
2026-04-25 16:20 52.63866 -1.24456 26636 ft 412 kts 327°
2026-04-25 16:21 52.66309 -1.26934 26999 ft 414 kts 327°
2026-04-25 16:21 52.68770 -1.29428 27340 ft 416 kts 327°
2026-04-25 16:21 52.71246 -1.31936 27701 ft 418 kts 327°
2026-04-25 16:21 52.73731 -1.34455 28070 ft 421 kts 327°
2026-04-25 16:22 52.76230 -1.36993 28424 ft 423 kts 327°
2026-04-25 16:22 52.78746 -1.39554 28743 ft 426 kts 327°
2026-04-25 16:22 52.81269 -1.42131 29066 ft 428 kts 327°
2026-04-25 16:22 52.83805 -1.44731 29401 ft 430 kts 327°
2026-04-25 16:23 52.86356 -1.47352 29722 ft 432 kts 327°
2026-04-25 16:23 52.88918 -1.49988 30040 ft 435 kts 327°
2026-04-25 16:23 52.91491 -1.52634 30335 ft 436 kts 327°
2026-04-25 16:23 52.94073 -1.55291 30598 ft 438 kts 327°
2026-04-25 16:24 52.96672 -1.57966 30846 ft 440 kts 327°
2026-04-25 16:24 52.99273 -1.60650 31095 ft 441 kts 327°
2026-04-25 16:24 53.01885 -1.63355 31336 ft 444 kts 327°
2026-04-25 16:24 53.04481 -1.66004 31645 ft 444 kts 330°
2026-04-25 16:25 53.07279 -1.68163 31965 ft 445 kts 338°
2026-04-25 16:25 53.09246 -1.69367 32134 ft 446 kts 338°
2026-04-25 16:25 53.13048 -1.71706 32196 ft 432 kts 338°
2026-04-25 16:26 53.18601 -1.75158 32194 ft 423 kts 338°
2026-04-25 16:26 53.24099 -1.78589 32200 ft 422 kts 338°
2026-04-25 16:27 53.29596 -1.82018 32196 ft 422 kts 338°
2026-04-25 16:27 53.35091 -1.85462 32201 ft 422 kts 338°
2026-04-25 16:28 53.40583 -1.88907 32195 ft 421 kts 338°
2026-04-25 16:28 53.46076 -1.92354 32196 ft 421 kts 338°
2026-04-25 16:29 53.51560 -1.95810 32193 ft 421 kts 338°
2026-04-25 16:29 53.57039 -1.99284 32191 ft 421 kts 338°
2026-04-25 16:30 53.62514 -2.02769 32191 ft 421 kts 338°
2026-04-25 16:30 53.67990 -2.06253 32191 ft 421 kts 338°
2026-04-25 16:31 53.73464 -2.09741 32202 ft 420 kts 338°
2026-04-25 16:31 53.78914 -2.13326 32195 ft 420 kts 336°
2026-04-25 16:32 53.84333 -2.17059 32193 ft 420 kts 336°
2026-04-25 16:32 53.89741 -2.20804 32192 ft 420 kts 336°
2026-04-25 16:33 53.95129 -2.24503 32194 ft 420 kts 336°
2026-04-25 16:33 54.00547 -2.28220 32200 ft 420 kts 336°
2026-04-25 16:34 54.05966 -2.31955 32196 ft 420 kts 336°
2026-04-25 16:34 54.11384 -2.35707 32195 ft 420 kts 336°
2026-04-25 16:35 54.16800 -2.39464 32197 ft 420 kts 336°
2026-04-25 16:35 54.22213 -2.43237 32205 ft 420 kts 336°
2026-04-25 16:36 54.27628 -2.47019 32191 ft 421 kts 336°
2026-04-25 16:36 54.33060 -2.50806 32191 ft 422 kts 336°
2026-04-25 16:37 54.38499 -2.54620 32193 ft 423 kts 336°
2026-04-25 16:37 54.43937 -2.58453 32183 ft 423 kts 336°
2026-04-25 16:38 54.49382 -2.62291 32183 ft 423 kts 336°
2026-04-25 16:38 54.54845 -2.66159 32095 ft 425 kts 336°
2026-04-25 16:38 54.57576 -2.68098 31540 ft 424 kts 336°
2026-04-25 16:39 54.60290 -2.70023 31037 ft 421 kts 336°
2026-04-25 16:39 54.62953 -2.71913 30560 ft 417 kts 336°
2026-04-25 16:39 54.65625 -2.73813 30048 ft 414 kts 336°
2026-04-25 16:39 54.68274 -2.75699 29576 ft 409 kts 336°
2026-04-25 16:40 54.70886 -2.77559 29116 ft 404 kts 336°
2026-04-25 16:40 54.73469 -2.79403 28692 ft 399 kts 336°
2026-04-25 16:40 54.76019 -2.81231 28257 ft 395 kts 336°
2026-04-25 16:40 54.78543 -2.83049 27810 ft 390 kts 336°
2026-04-25 16:41 54.81039 -2.84848 27377 ft 387 kts 336°
2026-04-25 16:41 54.81877 -2.85451 27229 ft 385 kts 336°
2026-04-25 16:41 54.88400 -2.90147 26065 ft 378 kts 336°
2026-04-25 16:42 54.90833 -2.91898 25488 ft 380 kts 336°
2026-04-25 16:42 54.93280 -2.93664 24943 ft 381 kts 336°
2026-04-25 16:42 54.95726 -2.95439 24393 ft 382 kts 336°
2026-04-25 16:42 54.98183 -2.97227 23837 ft 383 kts 336°
2026-04-25 16:43 55.00641 -2.99016 23220 ft 383 kts 336°
2026-04-25 16:43 55.03103 -3.00802 22676 ft 382 kts 336°
2026-04-25 16:43 55.05551 -3.02582 22124 ft 381 kts 335°
2026-04-25 16:43 55.07989 -3.04357 21700 ft 377 kts 335°
2026-04-25 16:44 55.10411 -3.06123 21204 ft 375 kts 335°
2026-04-25 16:44 55.12803 -3.07867 20797 ft 371 kts 335°
2026-04-25 16:44 55.15179 -3.09603 20344 ft 369 kts 335°
2026-04-25 16:44 55.17526 -3.11322 19728 ft 363 kts 335°
2026-04-25 16:45 55.19847 -3.13022 18991 ft 359 kts 335°
2026-04-25 16:45 55.22099 -3.14672 18378 ft 352 kts 335°
2026-04-25 16:45 55.24324 -3.16303 17838 ft 341 kts 335°
2026-04-25 16:45 55.26470 -3.17881 17382 ft 330 kts 335°
2026-04-25 16:46 55.28562 -3.19426 16855 ft 323 kts 335°
2026-04-25 16:46 55.30577 -3.21098 16420 ft 318 kts 327°
2026-04-25 16:46 55.32473 -3.23051 15966 ft 315 kts 327°
2026-04-25 16:46 55.33112 -3.23709 15816 ft 314 kts 327°
2026-04-25 16:47 55.36250 -3.26935 15191 ft 313 kts 328°
2026-04-25 16:47 55.38124 -3.28859 14664 ft 310 kts 327°
2026-04-25 16:47 55.39968 -3.30757 14174 ft 305 kts 328°
2026-04-25 16:47 55.41783 -3.32631 13690 ft 301 kts 328°
2026-04-25 16:48 55.43587 -3.34491 13237 ft 301 kts 328°
2026-04-25 16:48 55.45393 -3.36351 12817 ft 302 kts 328°
2026-04-25 16:48 55.47208 -3.38223 12369 ft 304 kts 328°
2026-04-25 16:48 55.49018 -3.40092 12121 ft 299 kts 328°
2026-04-25 16:49 55.50806 -3.41938 11776 ft 297 kts 328°
2026-04-25 16:49 55.52587 -3.43779 11400 ft 295 kts 327°
2026-04-25 16:49 55.54341 -3.45597 10789 ft 291 kts 328°
2026-04-25 16:49 55.56074 -3.47400 10256 ft 286 kts 328°
2026-04-25 16:50 55.57774 -3.49169 9812 ft 280 kts 328°
2026-04-25 16:50 55.59388 -3.50848 9727 ft 258 kts 328°
2026-04-25 16:50 55.60885 -3.52408 9651 ft 246 kts 328°
2026-04-25 16:50 55.62350 -3.53939 9558 ft 241 kts 328°
2026-04-25 16:51 55.63764 -3.55418 9464 ft 232 kts 328°
2026-04-25 16:51 55.64980 -3.57184 9248 ft 226 kts 306°
2026-04-25 16:51 55.65954 -3.59388 8894 ft 228 kts 312°
2026-04-25 16:51 55.66316 -3.60034 8796 ft 229 kts 315°
2026-04-25 16:52 55.68342 -3.63142 8271 ft 231 kts 319°
2026-04-25 16:52 55.69573 -3.64918 7966 ft 231 kts 320°
2026-04-25 16:52 55.70862 -3.66686 7649 ft 232 kts 321°
2026-04-25 16:52 55.72146 -3.68447 7336 ft 233 kts 321°
2026-04-25 16:53 55.75378 -3.71832 7088 ft 222 kts 317°
2026-04-25 16:53 55.76469 -3.73769 6607 ft 224 kts 310°
2026-04-25 16:53 55.77501 -3.75875 6085 ft 224 kts 309°
2026-04-25 16:54 55.78611 -3.77621 5780 ft 210 kts 330°
2026-04-25 16:54 55.80026 -3.78066 5339 ft 211 kts
2026-04-25 16:54 55.81318 -3.76959 5002 ft 208 kts 43°
2026-04-25 16:54 55.82129 -3.74905 4796 ft 198 kts 57°
2026-04-25 16:55 55.82832 -3.72848 4556 ft 191 kts 57°
2026-04-25 16:55 55.83514 -3.70863 4311 ft 185 kts 58°
2026-04-25 16:55 55.84174 -3.68944 4068 ft 179 kts 58°
2026-04-25 16:55 55.84812 -3.67086 3833 ft 174 kts 59°
2026-04-25 16:56 55.85436 -3.65270 3615 ft 170 kts 59°
2026-04-25 16:56 55.86050 -3.63480 3390 ft 168 kts 59°
2026-04-25 16:56 55.86451 -3.62310 3233 ft 166 kts 59°
2026-04-25 16:56 55.87050 -3.60562 3017 ft 164 kts 60°
2026-04-25 16:57 55.87645 -3.58824 2804 ft 165 kts 60°
2026-04-25 16:57 55.88045 -3.57656 2628 ft 167 kts 60°
2026-04-25 16:57 55.88851 -3.55301 2323 ft 166 kts 60°
2026-04-25 16:57 55.89441 -3.53574 2099 ft 160 kts 61°
2026-04-25 16:58 55.90006 -3.51924 1880 ft 152 kts 63°
2026-04-25 16:58 55.90540 -3.50358 1677 ft 144 kts 62°
2026-04-25 16:58 55.91054 -3.48851 1478 ft 140 kts 62°
2026-04-25 16:58 55.91555 -3.47380 1300 ft 138 kts 62°
2026-04-25 16:59 55.92052 -3.45921 1105 ft 136 kts 61°
2026-04-25 16:59 55.92534 -3.44505 910 ft 133 kts 60°
2026-04-25 16:59 55.93015 -3.43106 760 ft 131 kts 59°
2026-04-25 16:59 55.93487 -3.41704 542 ft 130 kts 59°
2026-04-25 17:00 55.93957 -3.40338 360 ft 130 kts 58°
2026-04-25 17:00 55.94420 -3.38978 203 ft 128 kts 58°
2026-04-25 17:00 55.94871 -3.37639 114 ft 115 kts 59°
2026-04-25 17:00 55.95186 -3.36715 114 ft 51 kts 59°
2026-04-25 17:01 55.95248 -3.36415 111 ft 15 kts 121°
2026-04-25 17:01 55.95190 -3.36340 113 ft 7 kts 147°
2026-04-25 17:01 55.95186 -3.36336 114 ft 2 kts 147°
2026-04-25 17:01 55.95119 -3.36342 114 ft 14 kts 220°
2026-04-25 17:02 55.95042 -3.36391 116 ft 11 kts 185°
2026-04-25 17:02 55.94990 -3.36471 112 ft 10 kts 238°
2026-04-25 17:02 55.94953 -3.36540 116 ft 6 kts 171°
2026-04-25 17:02 55.94918 -3.36509 112 ft 5 kts 149°
2026-04-25 17:03 55.94906 -3.36497 114 ft 0 kts 149°